Meadows Field
KBFL : rendu visible

Aérodrome :











RETROUVEZ-NOUS SUR...

 
LOGIN :

S'inscrire | Disclaimer

   EN    FR    IT 

 









Légende :    VFR   VFR Marginal   IFR   IFR Intensif   IFR Très Intensif
Visi : 
Plafond : 
>= 8 km
>= 3000ft
5 à 8 km
1000 à 3000 ft
1500m à 5 km
500 à 1000 ft
800 à 1500m
200 à 500 ft
< 800m
< 200 ft
Symboles :   Orages  Brouillard  Fortes neiges  Fortes précipitations  Vent > 20 kt






- Altitude de l'aérodrome : 510 ft
- Code IATA : BFL


KBFL - Meadows Field

DERNIER METAR :
  • 110054Z 31010KT 10SM FEW110 38/11 A2975 RMK AO2 SLP065 T03830111

METARs EXPIRÉS :
  • 102354Z 29009KT 10SM FEW110 38/11 A2976 RMK AO2 SLP069 T03830106 10389 20322 56022
  • 102254Z 29008KT 10SM FEW110 38/10 A2978 RMK AO2 SLP076 T03830100

TAF KBFL
Valide du 11 à 00h jusqu'au 12 à 00h UTC


102324Z 1100/1124 31008KT P6SM SKC
FM110400 VRB04KT P6SM SKC
FM111900 30009KT P6SM SKC
FIR KZLA / Amérique du Nord



MET'MAP, la Météo Aéronautique d'un coup d'oeil ! - Copyright ORBIFLY Décembre 2007 - Disclaimer

ORBIFLY MET'MAP TEAM :

Programmation & Développement : Alexandra Zaïnal
Sur une idée originale de : Baudouin d'Aumeries
Assistance à la programmation : Marc-Olivier Méhu
Soutien technique & logistique : Manuel Goepfert

Contact : metmap@orbifly.com




SOURCES & CREDITS :

   NOAA       Earth
Advisory